Northeast Philadelphia, PA

8:17 AM EDT on July 28, 2017 (GMT -0400)
Northeast Philadelphia

Weather History for KPNE - November, 2013

Change the Weather History Date:

Wednesday, November 27, 2013

  Actual Average Record
Temperature  
Mean Temperature 50 °F -  
Max Temperature 64 °F 49 °F 64 °F (2007)
Min Temperature 33 °F 33 °F 23 °F (1996)
Degree Days  
Heating Degree Days 16    
Moisture  
Dew Point 47 °F    
Average Humidity 88    
Maximum Humidity 100    
Minimum Humidity 54    
Precipitation  
Precipitation 1.66 in - - ()
Sea Level Pressure  
Sea Level Pressure 29.52 in    
Wind  
Wind Speed 12 mph (West)    
Max Wind Speed 24 mph    
Max Gust Speed 34 mph    
Visibility 6 miles    
Events Rain    
Averages and records for this station are not official NWS values.
T = Trace of Precipitation, MM = Missing Value Source: NWS Daily Summary

Daily Weather History Graph

Daily Weather History Graph

Search for Another Location

Airport or City:

Trip Planner

Search our weather history database for the weather conditions in past years. The results will help you decide how hot, cold, wet, or windy it might be!

Date:

Astronomy

Nov. 27, 2013 Rise Set
Actual Time 6:58 AM EST 4:36 PM EST
Civil Twilight 6:29 AM EST 5:06 PM EST
Nautical Twilight 5:55 AM EST 5:39 PM EST
Astronomical Twilight 5:23 AM EST 6:12 PM EST
Moon 12:58 AM EST (11/27) 1:12 PM EST (11/27)
Length of Visible Light 10h 36m
Length of Day
9h 37m
Waning Crescent, 32% of the Moon is Illuminated
Nov 27
Waning Crescent
Dec 2
New
Dec 9
First Quarter
Dec 17
Full
Dec 25
Last Quarter

Hourly Weather History & Observations

Time (EST) Temp. Windchill Dew Point Humidity Pressure Visibility Wind Dir Wind Speed Gust Speed Precip Events Conditions
12:13 AM 55.4 °F - 55.4 °F 100% 29.66 in 3.0 mi ESE 11.5 mph - 0.07 in Rain Heavy Rain
12:37 AM 57.2 °F - 55.4 °F 94% 29.63 in 2.5 mi ESE 11.5 mph - 0.16 in Rain Heavy Rain
12:47 AM 57.2 °F - 55.4 °F 94% 29.62 in 2.0 mi ESE 10.4 mph - 0.23 in Rain Heavy Rain
12:54 AM 57.9 °F - 57.0 °F 97% 29.62 in 2.5 mi ESE 10.4 mph - 0.27 in Rain Heavy Rain
1:32 AM 59.0 °F - 57.2 °F 94% 29.54 in 3.0 mi ESE 9.2 mph - 0.27 in Rain Heavy Rain
1:39 AM 59.0 °F - 57.2 °F 94% 29.53 in 2.5 mi ESE 10.4 mph 17.3 mph 0.33 in Rain Heavy Rain
1:54 AM 62.1 °F - 60.1 °F 93% 29.51 in 2.5 mi SSE 12.7 mph 19.6 mph 0.40 in Rain Rain
2:04 AM 62.6 °F - 60.8 °F 94% 29.50 in 3.0 mi SSE 16.1 mph 25.3 mph 0.02 in Rain Rain
2:15 AM 62.6 °F - 60.8 °F 94% 29.50 in 4.0 mi SSE 16.1 mph 26.5 mph 0.03 in Rain Light Rain
2:54 AM 64.0 °F - 62.1 °F 93% 29.47 in 4.0 mi South 8.1 mph 18.4 mph 0.08 in Rain Rain
3:05 AM 64.4 °F - 62.6 °F 94% 29.46 in 2.5 mi South 9.2 mph - 0.06 in Rain Heavy Rain
3:15 AM 64.4 °F - 62.6 °F 94% 29.44 in 6.0 mi South 8.1 mph 24.2 mph 0.08 in Rain Light Rain
3:54 AM 64.9 °F - 62.1 °F 90% 29.43 in 5.0 mi WSW 15.0 mph 26.5 mph 0.10 in Rain Rain
3:57 AM 64.4 °F - 62.6 °F 94% 29.44 in 2.5 mi WSW 16.1 mph 25.3 mph 0.03 in Rain Heavy Rain
4:05 AM 62.6 °F - 62.6 °F 100% 29.43 in 1.2 mi WSW 10.4 mph 18.4 mph 0.18 in Rain Heavy Rain
4:10 AM 62.6 °F - 62.6 °F 100% 29.43 in 2.5 mi WSW 8.1 mph - 0.20 in Rain Rain
4:17 AM 62.6 °F - 60.8 °F 94% 29.43 in 3.0 mi WSW 10.4 mph - 0.21 in Rain Rain
4:35 AM 62.6 °F - 60.8 °F 94% 29.43 in 4.0 mi SW 8.1 mph - 0.26 in Rain Light Rain
4:54 AM 60.1 °F - 59.0 °F 96% 29.44 in 6.0 mi West 15.0 mph - 0.30 in Rain Light Rain
5:03 AM 59.0 °F - 57.2 °F 94% 29.43 in 2.5 mi West 9.2 mph - 0.04 in Rain Heavy Rain
5:10 AM 57.2 °F - 55.4 °F 94% 29.43 in 3.0 mi NW 9.2 mph - 0.06 in Rain Light Rain
5:54 AM 52.0 °F - 51.1 °F 97% 29.45 in 7.0 mi West 6.9 mph - 0.14 in Rain Light Rain
6:30 AM 51.8 °F - 48.2 °F 88% 29.44 in 4.0 mi WNW 6.9 mph - 0.08 in Rain Rain
6:44 AM 50.0 °F - 48.2 °F 94% 29.47 in 6.0 mi West 16.1 mph 21.9 mph 0.11 in Rain Light Rain
6:54 AM 48.9 °F - 46.9 °F 93% 29.47 in 6.0 mi West 13.8 mph 24.2 mph 0.12 in Rain Rain
7:12 AM 48.2 °F - 46.4 °F 93% 29.46 in 10.0 mi WNW 11.5 mph - 0.01 in Rain Light Rain
7:54 AM 46.9 °F - 45.0 °F 93% 29.49 in 10.0 mi West 11.5 mph - 0.01 in   Overcast
8:49 AM 46.4 °F 41.5 °F 44.6 °F 93% 29.47 in 5.0 mi WNW 10.4 mph - 0.07 in Rain Light Rain
8:54 AM 46.0 °F 43.1 °F 44.1 °F 93% 29.48 in 6.0 mi West 5.8 mph - 0.07 in Rain Light Rain
9:54 AM 45.0 °F 39.7 °F 42.1 °F 90% 29.48 in 7.0 mi NW 10.4 mph 16.1 mph 0.04 in Rain Light Rain
10:15 AM 44.6 °F 38.4 °F 42.8 °F 93% 29.47 in 10.0 mi NW 12.7 mph 16.1 mph 0.00 in Rain Light Rain
10:54 AM 45.0 °F 38.5 °F 41.0 °F 86% 29.47 in 10.0 mi NW 13.8 mph 23.0 mph 0.00 in   Overcast
11:32 AM 44.6 °F 39.7 °F 39.2 °F 81% 29.49 in 10.0 mi WNW 9.2 mph - 0.00 in Rain Light Rain
11:54 AM 44.1 °F 38.1 °F 39.0 °F 82% 29.48 in 10.0 mi NW 11.5 mph 19.6 mph 0.01 in Rain Light Rain
12:29 PM 42.8 °F 35.8 °F 37.4 °F 81% 29.45 in 10.0 mi NW 13.8 mph 23.0 mph 0.01 in Rain Light Rain
12:54 PM 42.1 °F 34.9 °F 37.9 °F 85% 29.45 in 10.0 mi NW 13.8 mph - 0.01 in Rain Light Rain
1:54 PM 41.0 °F 33.9 °F 37.0 °F 86% 29.44 in 10.0 mi NW 12.7 mph - 0.01 in Rain Light Rain
2:54 PM 39.9 °F 32.5 °F 36.0 °F 86% 29.47 in 7.0 mi NW 12.7 mph 23.0 mph 0.03 in Rain Light Rain
3:54 PM 39.0 °F 29.9 °F 35.1 °F 86% 29.46 in 8.0 mi NW 17.3 mph 24.2 mph 0.05 in Rain Light Rain
4:51 PM 37.4 °F 28.2 °F 35.6 °F 93% 29.55 in 4.0 mi WNW 16.1 mph 24.2 mph 0.01 in Rain Light Rain
4:52 PM 37.9 °F 28.9 °F 35.1 °F 89% 29.55 in 4.0 mi WNW 16.1 mph 24.2 mph 0.01 in Rain Light Rain
5:54 PM 37.0 °F 28.1 °F 34.0 °F 89% 29.60 in 10.0 mi WNW 15.0 mph 21.9 mph 0.01 in   Overcast
6:03 PM 37.4 °F 27.5 °F 33.8 °F 87% 29.60 in 10.0 mi WNW 18.4 mph 25.3 mph 0.00 in   Overcast
6:54 PM 37.9 °F 29.2 °F 33.1 °F 83% 29.63 in 10.0 mi NW 15.0 mph 25.3 mph 0.00 in   Overcast
7:54 PM 37.9 °F 28.5 °F 30.9 °F 76% 29.68 in 10.0 mi WNW 17.3 mph 27.6 mph N/A   Overcast
8:54 PM 37.0 °F 27.7 °F 21.9 °F 54% 29.73 in 10.0 mi NW 16.1 mph 28.8 mph N/A   Overcast
9:54 PM 36.0 °F 24.4 °F 21.0 °F 55% 29.76 in 10.0 mi WNW 23.0 mph 31.1 mph N/A   Scattered Clouds
10:54 PM 35.1 °F 23.0 °F 19.9 °F 54% 29.82 in 10.0 mi WNW 24.2 mph 34.5 mph N/A   Overcast
11:54 PM 33.1 °F 23.0 °F 19.0 °F 56% 29.88 in 10.0 mi West 15.0 mph 24.2 mph N/A   Overcast